AEHF-6 (USA 298) (45465 NORAD) Tracking and Keplerian Element Data

This shows tracking and keplerian element data for the satellite.

Feedback or suggestion? Click here.




ElementValue
Catalog45465
NameAEHF-6 (USA 298)
Epoch Orbit124
Epoch Day191.64942356
Epoch Year2020
RAAN310.2942
Inclination7.7556
Eccentricity0.0255694
Argument of Perigee185.6401
Mean Anonmoly181.1375
Mean Motion1.05283106
Decay Rate-8.8E-07
L11 45465U 20022B 20191.64942356 -.00000088 00000-0 00000+0 0 9998
L22 45465 7.7556 310.2942 0255694 185.6401 181.1375 1.05283106 1242

Live tracking and technical data element details for AEHF-6 (USA 298) (NORAD 45465). AEHF-6 (USA 298) can be tracked NOW for your location showing map with azimuth and elevation plus other details from your city location.

Track the satellite on the map from your city or location and see movement details for azimuth, elevation, latitude, longitude, range, height, and movement on the map or in text.







IsCatalogInMostPopularTable: catalog: 45465, numindb: 22
Update: records affected: 1



GetName: 45465 AEHF-6 (USA 298)

Hit Count: updated at: Mon, 13 Jul 2020 05:04:26 GMT